Time,TemperatureF,DewpointF,PressureIn,WindDirection,WindDirectionDegrees,WindSpeedMPH,WindSpeedGustMPH,Humidity,HourlyPrecipIn,Conditions,Clouds,dailyrainin,SoftwareType,DateUTC
2013-01-31 00:01:00,33.1,27.9,30.02,West,259,0.0,7.0,81,0.00,,---,1.26,VWS V14.01,2013-01-31 06:01:00,
2013-01-31 00:06:00,32.8,27.6,30.02,West,259,3.0,4.0,81,0.00,,---,0.00,VWS V14.01,2013-01-31 06:06:00,
2013-01-31 00:11:00,32.7,27.8,30.02,West,259,0.0,4.0,82,0.00,,---,0.00,VWS V14.01,2013-01-31 06:11:00,
2013-01-31 00:16:00,32.5,27.6,30.02,West,279,6.0,6.0,82,0.00,,---,0.00,VWS V14.01,2013-01-31 06:16:00,
2013-01-31 00:21:00,32.4,27.8,30.03,West,271,1.0,6.0,83,0.00,,---,0.00,VWS V14.01,2013-01-31 06:21:00,
2013-01-31 00:26:00,32.3,28.0,30.03,WNW,288,0.0,6.0,84,0.00,,---,0.00,VWS V14.01,2013-01-31 06:26:00,
2013-01-31 00:31:00,32.4,28.4,30.03,WNW,288,1.0,6.0,85,0.00,,---,0.00,VWS V14.01,2013-01-31 06:31:00,
2013-01-31 00:36:00,32.4,28.1,30.03,NW,304,3.0,5.0,84,0.00,,---,0.00,VWS V14.01,2013-01-31 06:36:00,
2013-01-31 00:41:00,32.5,27.9,30.03,WNW,300,3.0,7.0,83,0.00,,---,0.00,VWS V14.01,2013-01-31 06:41:00,
2013-01-31 00:46:00,32.7,27.2,30.03,NW,319,9.0,11.0,80,0.00,,---,0.00,VWS V14.01,2013-01-31 06:46:00,
2013-01-31 00:51:00,32.9,27.1,30.03,NW,323,7.0,11.0,79,0.00,,---,0.00,VWS V14.01,2013-01-31 06:51:00,
2013-01-31 00:56:00,32.9,26.8,30.03,WNW,294,6.0,11.0,78,0.00,,---,0.00,VWS V14.01,2013-01-31 06:56:00,
2013-01-31 01:01:00,32.9,26.5,30.03,NW,315,10.0,11.0,77,0.00,,---,0.00,VWS V14.01,2013-01-31 07:01:00,
2013-01-31 01:06:00,32.9,25.9,30.03,WNW,293,9.0,14.0,75,0.00,,---,0.00,VWS V14.01,2013-01-31 07:06:00,
2013-01-31 01:11:00,32.8,25.8,30.03,WNW,287,8.0,14.0,75,0.00,,---,0.00,VWS V14.01,2013-01-31 07:11:00,
2013-01-31 01:16:00,32.8,25.8,30.03,WNW,300,3.0,14.0,75,0.00,,---,0.00,VWS V14.01,2013-01-31 07:16:00,
2013-01-31 01:21:00,32.6,25.9,30.02,WNW,291,3.0,14.0,76,0.00,,---,0.00,VWS V14.01,2013-01-31 07:21:00,
2013-01-31 01:26:00,32.3,25.6,30.03,West,281,3.0,14.0,76,0.00,,---,0.00,VWS V14.01,2013-01-31 07:26:00,
2013-01-31 01:31:00,32.2,25.8,30.03,WNW,296,3.0,14.0,77,0.00,,---,0.00,VWS V14.01,2013-01-31 07:31:00,
2013-01-31 01:36:00,32.2,25.8,30.03,West,281,5.0,7.0,77,0.00,,---,0.00,VWS V14.01,2013-01-31 07:36:00,
2013-01-31 01:41:00,32.1,25.7,30.03,West,267,3.0,7.0,77,0.00,,---,0.00,VWS V14.01,2013-01-31 07:41:00,
2013-01-31 01:46:00,31.9,25.5,30.04,WNW,292,4.0,7.0,77,0.00,,---,0.00,VWS V14.01,2013-01-31 07:46:00,
2013-01-31 01:51:00,31.7,25.6,30.03,WNW,300,6.0,7.0,78,0.00,,---,0.00,VWS V14.01,2013-01-31 07:51:00,
2013-01-31 01:56:00,31.6,25.5,30.04,West,275,3.0,7.0,78,0.00,,---,0.00,VWS V14.01,2013-01-31 07:56:00,
2013-01-31 02:01:00,31.5,25.4,30.04,WSW,255,1.0,7.0,78,0.00,,---,0.00,VWS V14.01,2013-01-31 08:01:00,
2013-01-31 02:06:00,31.4,25.4,30.04,WSW,256,3.0,4.0,78,0.00,,---,0.00,VWS V14.01,2013-01-31 08:06:00,
2013-01-31 02:11:00,31.2,25.1,30.03,WSW,256,2.0,4.0,78,0.00,,---,0.00,VWS V14.01,2013-01-31 08:11:00,
2013-01-31 02:16:00,31.0,25.3,30.04,West,266,2.0,4.0,79,0.00,,---,0.00,VWS V14.01,2013-01-31 08:16:00,
2013-01-31 02:21:00,30.9,25.2,30.04,West,273,2.0,5.0,79,0.00,,---,0.00,VWS V14.01,2013-01-31 08:21:00,
2013-01-31 02:26:00,30.8,25.1,30.04,WSW,250,3.0,5.0,79,0.00,,---,0.00,VWS V14.01,2013-01-31 08:26:00,
2013-01-31 02:31:00,30.8,25.1,30.04,WSW,242,1.0,5.0,79,0.00,,---,0.00,VWS V14.01,2013-01-31 08:31:00,
2013-01-31 02:36:00,30.8,25.1,30.04,WSW,240,0.0,1.0,79,0.00,,---,0.00,VWS V14.01,2013-01-31 08:36:00,
2013-01-31 02:41:00,30.7,25.0,30.04,WSW,240,0.0,2.0,79,0.00,,---,0.00,VWS V14.01,2013-01-31 08:41:00,
2013-01-31 02:46:00,30.5,25.1,30.04,WSW,242,2.0,3.0,80,0.00,,---,0.00,VWS V14.01,2013-01-31 08:46:00,
2013-01-31 02:51:00,30.4,25.0,30.04,WSW,242,1.0,3.0,80,0.00,,---,0.00,VWS V14.01,2013-01-31 08:51:00,
2013-01-31 02:56:00,30.3,25.2,30.04,WSW,242,1.0,3.0,81,0.00,,---,0.00,VWS V14.01,2013-01-31 08:56:00,
2013-01-31 03:01:00,30.1,25.0,30.04,WSW,242,1.0,3.0,81,0.00,,---,0.00,VWS V14.01,2013-01-31 09:01:00,
2013-01-31 03:06:00,30.0,24.9,30.04,WSW,242,0.0,0.0,81,0.00,,---,0.00,VWS V14.01,2013-01-31 09:06:00,
2013-01-31 03:11:00,29.9,25.1,30.04,WSW,242,0.0,0.0,82,0.00,,---,0.00,VWS V14.01,2013-01-31 09:11:00,
2013-01-31 03:16:00,29.7,25.2,30.04,WSW,242,0.0,0.0,83,0.00,,---,0.00,VWS V14.01,2013-01-31 09:16:00,
2013-01-31 03:21:00,29.5,25.3,30.04,WSW,242,0.0,0.0,84,0.00,,---,0.00,VWS V14.01,2013-01-31 09:21:00,
2013-01-31 03:26:00,29.3,25.1,30.04,WSW,240,1.0,3.0,84,0.00,,---,0.00,VWS V14.01,2013-01-31 09:26:00,
2013-01-31 03:31:00,29.0,25.1,30.04,WSW,240,2.0,3.0,85,0.00,,---,0.00,VWS V14.01,2013-01-31 09:31:00,
2013-01-31 03:36:00,28.8,25.1,30.04,WSW,240,2.0,2.0,86,0.00,,---,0.00,VWS V14.01,2013-01-31 09:36:00,
2013-01-31 03:41:00,28.8,25.1,30.04,WSW,240,0.0,3.0,86,0.00,,---,0.00,VWS V14.01,2013-01-31 09:41:00,
2013-01-31 03:46:00,28.8,25.1,30.04,WSW,239,2.0,3.0,86,0.00,,---,0.00,VWS V14.01,2013-01-31 09:46:00,
2013-01-31 03:51:00,28.9,25.2,30.04,WSW,242,2.0,4.0,86,0.00,,---,0.00,VWS V14.01,2013-01-31 09:51:00,
2013-01-31 03:56:00,29.0,25.4,30.03,WSW,242,1.0,4.0,86,0.00,,---,0.00,VWS V14.01,2013-01-31 09:56:00,
2013-01-31 04:01:00,29.1,25.4,30.04,WSW,242,1.0,4.0,86,0.00,,---,0.00,VWS V14.01,2013-01-31 10:01:00,
2013-01-31 04:06:00,29.2,25.5,30.03,SW,233,1.0,3.0,86,0.00,,---,0.00,VWS V14.01,2013-01-31 10:06:00,
2013-01-31 04:11:00,29.2,25.5,30.04,SW,225,1.0,3.0,86,0.00,,---,0.00,VWS V14.01,2013-01-31 10:11:00,
2013-01-31 04:16:00,29.2,25.5,30.03,SW,225,2.0,3.0,86,0.00,,---,0.00,VWS V14.01,2013-01-31 10:16:00,
2013-01-31 04:21:00,29.2,25.5,30.04,SW,225,2.0,4.0,86,0.00,,---,0.00,VWS V14.01,2013-01-31 10:21:00,
2013-01-31 04:26:00,29.3,25.6,30.05,SW,225,0.0,4.0,86,0.00,,---,0.00,VWS V14.01,2013-01-31 10:26:00,
2013-01-31 04:31:00,29.5,25.8,30.04,SW,225,0.0,4.0,86,0.00,,---,0.00,VWS V14.01,2013-01-31 10:31:00,
2013-01-31 04:36:00,29.5,25.8,30.04,SW,225,4.0,4.0,86,0.00,,---,0.00,VWS V14.01,2013-01-31 10:36:00,
2013-01-31 04:41:00,29.7,26.0,30.04,SW,225,2.0,4.0,86,0.00,,---,0.00,VWS V14.01,2013-01-31 10:41:00,
2013-01-31 04:46:00,29.7,25.8,30.04,SW,225,2.0,4.0,85,0.00,,---,0.00,VWS V14.01,2013-01-31 10:46:00,
2013-01-31 04:51:00,29.7,25.8,30.04,SW,225,3.0,4.0,85,0.00,,---,0.00,VWS V14.01,2013-01-31 10:51:00,
2013-01-31 04:56:00,29.6,25.9,30.05,SW,225,0.0,4.0,86,0.00,,---,0.00,VWS V14.01,2013-01-31 10:56:00,
2013-01-31 05:01:00,29.7,26.0,30.05,SW,225,2.0,4.0,86,0.00,,---,0.00,VWS V14.01,2013-01-31 11:01:00,
2013-01-31 05:06:00,29.6,25.6,30.05,SW,225,0.0,0.0,85,0.00,,---,0.00,VWS V14.01,2013-01-31 11:06:00,
2013-01-31 05:11:00,29.4,25.5,30.06,SW,225,3.0,3.0,85,0.00,,---,0.00,VWS V14.01,2013-01-31 11:11:00,
2013-01-31 05:16:00,29.1,25.4,30.06,SW,225,2.0,3.0,86,0.00,,---,0.00,VWS V14.01,2013-01-31 11:16:00,
2013-01-31 05:21:00,29.0,25.6,30.07,SW,227,2.0,4.0,87,0.00,,---,0.00,VWS V14.01,2013-01-31 11:21:00,
2013-01-31 05:26:00,28.9,25.5,30.07,SW,229,2.0,6.0,87,0.00,,---,0.00,VWS V14.01,2013-01-31 11:26:00,
2013-01-31 05:31:00,29.0,25.9,30.07,WSW,248,6.0,7.0,88,0.00,,---,0.00,VWS V14.01,2013-01-31 11:31:00,
2013-01-31 05:36:00,29.4,26.0,30.08,WSW,243,3.0,6.0,87,0.00,,---,0.00,VWS V14.01,2013-01-31 11:36:00,
2013-01-31 05:41:00,29.6,26.2,30.08,WSW,250,4.0,6.0,87,0.00,,---,0.00,VWS V14.01,2013-01-31 11:41:00,
2013-01-31 05:46:00,29.8,26.1,30.09,West,261,4.0,7.0,86,0.00,,---,0.00,VWS V14.01,2013-01-31 11:46:00,
2013-01-31 05:51:00,29.9,26.2,30.09,WSW,248,4.0,7.0,86,0.00,,---,0.00,VWS V14.01,2013-01-31 11:51:00,
2013-01-31 05:56:00,30.1,26.1,30.09,WSW,256,2.0,7.0,85,0.00,,---,0.00,VWS V14.01,2013-01-31 11:56:00,
2013-01-31 06:01:00,30.3,26.3,30.09,WSW,244,5.0,8.0,85,0.00,,---,0.00,VWS V14.01,2013-01-31 12:01:00,
2013-01-31 06:06:00,30.5,26.2,30.09,SW,221,6.0,9.0,84,0.00,,---,0.00,VWS V14.01,2013-01-31 12:06:00,
2013-01-31 06:11:00,30.7,26.5,30.10,WSW,250,5.0,9.0,84,0.00,,---,0.00,VWS V14.01,2013-01-31 12:11:00,
2013-01-31 06:16:00,30.6,26.1,30.10,WNW,300,3.0,9.0,83,0.00,,---,0.00,VWS V14.01,2013-01-31 12:16:00,
2013-01-31 06:21:00,30.6,26.4,30.11,West,262,2.0,9.0,84,0.00,,---,0.00,VWS V14.01,2013-01-31 12:21:00,
2013-01-31 06:26:00,30.6,26.1,30.11,WSW,250,5.0,9.0,83,0.00,,---,0.00,VWS V14.01,2013-01-31 12:26:00,
2013-01-31 06:31:00,30.6,26.1,30.11,WSW,253,3.0,9.0,83,0.00,,---,0.00,VWS V14.01,2013-01-31 12:31:00,
2013-01-31 06:36:00,30.6,26.1,30.11,WSW,249,4.0,4.0,83,0.00,,---,0.00,VWS V14.01,2013-01-31 12:36:00,
2013-01-31 06:41:00,30.5,26.0,30.11,West,271,4.0,5.0,83,0.00,,---,0.00,VWS V14.01,2013-01-31 12:41:00,
2013-01-31 06:46:00,30.5,26.0,30.11,WSW,250,2.0,5.0,83,0.00,,---,0.00,VWS V14.01,2013-01-31 12:46:00,
2013-01-31 06:51:00,30.3,25.8,30.12,WSW,254,2.0,5.0,83,0.00,,---,0.00,VWS V14.01,2013-01-31 12:51:00,
2013-01-31 06:56:00,30.3,25.8,30.12,WSW,246,2.0,5.0,83,0.00,,---,0.00,VWS V14.01,2013-01-31 12:56:00,
2013-01-31 07:01:00,30.3,25.8,30.12,WSW,254,2.0,5.0,83,0.00,,---,0.00,VWS V14.01,2013-01-31 13:01:00,
2013-01-31 07:06:00,30.4,25.9,30.12,WSW,248,0.0,4.0,83,0.00,,---,0.00,VWS V14.01,2013-01-31 13:06:00,
2013-01-31 07:11:00,30.6,26.1,30.12,WSW,249,3.0,4.0,83,0.00,,---,0.00,VWS V14.01,2013-01-31 13:11:00,
2013-01-31 07:16:00,30.6,26.1,30.12,West,267,1.0,4.0,83,0.00,,---,0.00,VWS V14.01,2013-01-31 13:16:00,
2013-01-31 07:21:00,30.6,26.1,30.13,West,261,0.0,4.0,83,0.00,,---,0.00,VWS V14.01,2013-01-31 13:21:00,
2013-01-31 07:26:00,30.7,26.5,30.12,North,360,2.0,4.0,84,0.00,,---,0.00,VWS V14.01,2013-01-31 13:26:00,
2013-01-31 07:31:00,30.7,26.5,30.12,SW,230,2.0,4.0,84,0.00,,---,0.00,VWS V14.01,2013-01-31 13:31:00,
2013-01-31 07:36:00,30.8,26.5,30.13,WSW,252,1.0,3.0,84,0.00,,---,0.00,VWS V14.01,2013-01-31 13:36:00,
2013-01-31 07:41:00,31.1,26.8,30.13,WSW,253,0.0,6.0,84,0.00,,---,0.00,VWS V14.01,2013-01-31 13:41:00,
2013-01-31 07:46:00,31.6,27.0,30.13,SSE,154,3.0,6.0,83,0.00,,---,0.00,VWS V14.01,2013-01-31 13:46:00,
2013-01-31 07:51:00,32.1,27.5,30.14,WSW,257,7.0,7.0,83,0.00,,---,0.00,VWS V14.01,2013-01-31 13:51:00,
2013-01-31 07:56:00,32.6,27.7,30.14,WSW,246,4.0,8.0,82,0.00,,---,0.00,VWS V14.01,2013-01-31 13:56:00,
2013-01-31 08:01:00,33.1,27.9,30.14,WSW,238,3.0,8.0,81,0.00,,---,0.00,VWS V14.01,2013-01-31 14:01:00,
2013-01-31 08:06:00,33.5,28.3,30.14,WSW,243,4.0,5.0,81,0.00,,---,0.00,VWS V14.01,2013-01-31 14:06:00,
2013-01-31 08:11:00,33.9,28.1,30.15,West,259,3.0,10.0,79,0.00,,---,0.00,VWS V14.01,2013-01-31 14:11:00,
2013-01-31 08:16:00,34.1,28.0,30.15,West,259,9.0,10.0,78,0.00,,---,0.00,VWS V14.01,2013-01-31 14:16:00,
2013-01-31 08:21:00,34.3,27.9,30.15,West,267,3.0,10.0,77,0.00,,---,0.00,VWS V14.01,2013-01-31 14:21:00,
2013-01-31 08:26:00,34.4,28.0,30.15,WNW,298,1.0,10.0,77,0.00,,---,0.00,VWS V14.01,2013-01-31 14:26:00,
2013-01-31 08:31:00,34.7,27.9,30.16,WNW,283,7.0,10.0,76,0.00,,---,0.00,VWS V14.01,2013-01-31 14:31:00,
2013-01-31 08:36:00,35.1,28.3,30.16,WSW,247,4.0,5.0,76,0.00,,---,0.00,VWS V14.01,2013-01-31 14:36:00,
2013-01-31 08:41:00,35.3,27.9,30.16,WSW,257,4.0,8.0,74,0.00,,---,0.00,VWS V14.01,2013-01-31 14:41:00,
2013-01-31 08:46:00,35.5,27.7,30.16,WSW,257,5.0,11.0,73,0.00,,---,0.00,VWS V14.01,2013-01-31 14:46:00,
2013-01-31 08:51:00,35.8,28.0,30.17,WNW,282,6.0,11.0,73,0.00,,---,0.00,VWS V14.01,2013-01-31 14:51:00,
2013-01-31 08:56:00,36.1,28.0,30.17,West,261,6.0,11.0,72,0.00,,---,0.00,VWS V14.01,2013-01-31 14:56:00,
2013-01-31 09:01:00,36.5,28.4,30.17,WSW,248,2.0,11.0,72,0.00,,---,0.00,VWS V14.01,2013-01-31 15:01:00,
2013-01-31 09:06:00,37.0,28.5,30.17,WNW,297,3.0,5.0,71,0.00,,---,0.00,VWS V14.01,2013-01-31 15:06:00,
2013-01-31 09:11:00,37.5,28.6,30.17,WNW,286,6.0,10.0,70,0.00,,---,0.00,VWS V14.01,2013-01-31 15:11:00,
2013-01-31 09:16:00,38.0,29.1,30.17,West,278,3.0,10.0,70,0.00,,---,0.00,VWS V14.01,2013-01-31 15:16:00,
2013-01-31 09:21:00,38.4,28.8,30.18,WSW,252,9.0,12.0,68,0.00,,---,0.00,VWS V14.01,2013-01-31 15:21:00,
2013-01-31 09:26:00,38.7,28.7,30.18,West,269,2.0,12.0,67,0.00,,---,0.00,VWS V14.01,2013-01-31 15:26:00,
2013-01-31 09:31:00,39.3,28.9,30.18,WSW,249,3.0,12.0,66,0.00,,---,0.00,VWS V14.01,2013-01-31 15:31:00,
2013-01-31 09:36:00,39.6,29.2,30.18,West,263,10.0,10.0,66,0.00,,---,0.00,VWS V14.01,2013-01-31 15:36:00,
2013-01-31 09:41:00,40.1,29.3,30.18,West,271,6.0,12.0,65,0.00,,---,0.00,VWS V14.01,2013-01-31 15:41:00,
2013-01-31 09:46:00,40.6,30.1,30.18,SW,236,4.0,12.0,66,0.00,,---,0.00,VWS V14.01,2013-01-31 15:46:00,
2013-01-31 09:51:00,40.7,28.7,30.17,WSW,251,6.0,12.0,62,0.00,,---,0.00,VWS V14.01,2013-01-31 15:51:00,
2013-01-31 09:56:00,40.6,28.6,30.17,SSW,209,7.0,12.0,62,0.00,,---,0.00,VWS V14.01,2013-01-31 15:56:00,
2013-01-31 10:01:00,40.9,29.3,30.17,WSW,250,9.0,12.0,63,0.00,,---,0.00,VWS V14.01,2013-01-31 16:01:00,
2013-01-31 10:06:00,41.5,29.9,30.17,WSW,247,9.0,9.0,63,0.00,,---,0.00,VWS V14.01,2013-01-31 16:06:00,
2013-01-31 10:11:00,41.7,29.3,30.17,WSW,239,4.0,10.0,61,0.00,,---,0.00,VWS V14.01,2013-01-31 16:11:00,
2013-01-31 10:16:00,41.8,30.5,30.17,SSW,212,4.0,10.0,64,0.00,,---,0.00,VWS V14.01,2013-01-31 16:16:00,
2013-01-31 10:21:00,42.3,29.8,30.17,SW,223,7.0,12.0,61,0.00,,---,0.00,VWS V14.01,2013-01-31 16:21:00,
2013-01-31 10:26:00,42.3,29.0,30.17,SSW,208,7.0,12.0,59,0.00,,---,0.00,VWS V14.01,2013-01-31 16:26:00,
2013-01-31 10:31:00,42.3,28.6,30.17,SW,227,8.0,13.0,58,0.00,,---,0.00,VWS V14.01,2013-01-31 16:31:00,
2013-01-31 10:36:00,42.7,29.0,30.17,WSW,242,6.0,10.0,58,0.00,,---,0.00,VWS V14.01,2013-01-31 16:36:00,
2013-01-31 10:41:00,42.9,30.0,30.16,WSW,237,4.0,12.0,60,0.00,,---,0.00,VWS V14.01,2013-01-31 16:41:00,
2013-01-31 10:46:00,43.2,29.4,30.16,SSE,157,6.0,12.0,58,0.00,,---,0.00,VWS V14.01,2013-01-31 16:46:00,
2013-01-31 10:51:00,43.1,29.8,30.16,West,259,5.0,12.0,59,0.00,,---,0.00,VWS V14.01,2013-01-31 16:51:00,
2013-01-31 10:56:00,43.6,29.8,30.16,South,182,8.0,12.0,58,0.00,,---,0.00,VWS V14.01,2013-01-31 16:56:00,
2013-01-31 11:01:00,43.9,30.1,30.16,WSW,248,12.0,13.0,58,0.00,,---,0.00,VWS V14.01,2013-01-31 17:01:00,
2013-01-31 11:06:00,43.9,30.1,30.16,SW,236,9.0,10.0,58,0.00,,---,0.00,VWS V14.01,2013-01-31 17:06:00,
2013-01-31 11:11:00,44.2,30.0,30.16,South,183,7.0,13.0,57,0.00,,---,0.00,VWS V14.01,2013-01-31 17:11:00,
2013-01-31 11:16:00,44.2,30.0,30.15,SW,229,6.0,13.0,57,0.00,,---,0.00,VWS V14.01,2013-01-31 17:16:00,
2013-01-31 11:21:00,44.5,30.2,30.15,SW,232,3.0,13.0,57,0.00,,---,0.00,VWS V14.01,2013-01-31 17:21:00,
2013-01-31 11:26:00,45.0,30.3,30.15,South,180,7.0,13.0,56,0.00,,---,0.00,VWS V14.01,2013-01-31 17:26:00,
2013-01-31 11:31:00,45.2,30.0,30.14,South,173,4.0,13.0,55,0.00,,---,0.00,VWS V14.01,2013-01-31 17:31:00,
2013-01-31 11:36:00,45.0,30.3,30.14,South,188,10.0,13.0,56,0.00,,---,0.00,VWS V14.01,2013-01-31 17:36:00,
2013-01-31 11:41:00,45.3,31.0,30.14,SW,236,11.0,13.0,57,0.00,,---,0.00,VWS V14.01,2013-01-31 17:41:00,
2013-01-31 11:46:00,45.9,30.7,30.13,SSW,213,7.0,13.0,55,0.00,,---,0.00,VWS V14.01,2013-01-31 17:46:00,
2013-01-31 11:51:00,46.5,29.8,30.13,SW,224,6.0,13.0,52,0.00,,---,0.00,VWS V14.01,2013-01-31 17:51:00,
2013-01-31 11:56:00,47.2,31.0,30.13,SSE,163,2.0,13.0,53,0.00,,---,0.00,VWS V14.01,2013-01-31 17:56:00,
2013-01-31 12:01:00,47.8,30.1,30.12,SW,236,7.0,13.0,50,0.00,,---,0.00,VWS V14.01,2013-01-31 18:01:00,
2013-01-31 12:06:00,48.2,30.0,30.12,SW,236,7.0,10.0,49,0.00,,---,0.00,VWS V14.01,2013-01-31 18:06:00,
2013-01-31 12:11:00,48.7,30.9,30.12,SSW,211,4.0,10.0,50,0.00,,---,0.00,VWS V14.01,2013-01-31 18:11:00,
2013-01-31 12:16:00,49.7,29.2,30.11,SW,217,0.0,10.0,45,0.00,,---,0.00,VWS V14.01,2013-01-31 18:16:00,
2013-01-31 12:21:00,50.5,30.0,30.11,SW,223,5.0,10.0,45,0.00,,---,0.00,VWS V14.01,2013-01-31 18:21:00,
2013-01-31 12:26:00,50.7,29.6,30.11,WSW,242,8.0,12.0,44,0.00,,---,0.00,VWS V14.01,2013-01-31 18:26:00,
2013-01-31 12:31:00,50.6,29.5,30.10,SSW,212,9.0,13.0,44,0.00,,---,0.00,VWS V14.01,2013-01-31 18:31:00,
2013-01-31 12:36:00,50.6,30.1,30.10,SSW,208,7.0,8.0,45,0.00,,---,0.00,VWS V14.01,2013-01-31 18:36:00,
2013-01-31 12:41:00,51.0,29.3,30.10,West,264,6.0,11.0,43,0.00,,---,0.00,VWS V14.01,2013-01-31 18:41:00,
2013-01-31 12:46:00,51.4,29.1,30.09,SW,217,7.0,13.0,42,0.00,,---,0.00,VWS V14.01,2013-01-31 18:46:00,
2013-01-31 12:51:00,51.6,29.9,30.09,WSW,254,10.0,15.0,43,0.00,,---,0.00,VWS V14.01,2013-01-31 18:51:00,
2013-01-31 12:56:00,51.7,29.4,30.09,SW,227,10.0,18.0,42,0.00,,---,0.00,VWS V14.01,2013-01-31 18:56:00,
2013-01-31 13:01:00,52.2,30.4,30.08,SSW,213,8.0,18.0,43,0.00,,---,0.00,VWS V14.01,2013-01-31 19:01:00,
2013-01-31 13:06:00,52.2,29.8,30.08,SSW,213,14.0,15.0,42,0.00,,---,0.00,VWS V14.01,2013-01-31 19:06:00,
2013-01-31 13:11:00,52.2,30.4,30.08,WSW,250,10.0,15.0,43,0.00,,---,0.00,VWS V14.01,2013-01-31 19:11:00,
2013-01-31 13:16:00,52.9,30.5,30.08,SSW,207,9.0,15.0,42,0.00,,---,0.00,VWS V14.01,2013-01-31 19:16:00,
2013-01-31 13:21:00,53.0,30.5,30.08,SSW,198,7.0,15.0,42,0.00,,---,0.00,VWS V14.01,2013-01-31 19:21:00,
2013-01-31 13:26:00,53.0,31.1,30.07,South,187,10.0,15.0,43,0.00,,---,0.00,VWS V14.01,2013-01-31 19:26:00,
2013-01-31 13:31:00,53.1,31.2,30.07,SSW,209,6.0,15.0,43,0.00,,---,0.00,VWS V14.01,2013-01-31 19:31:00,
2013-01-31 13:36:00,53.2,30.7,30.06,South,181,4.0,15.0,42,0.00,,---,0.00,VWS V14.01,2013-01-31 19:36:00,
2013-01-31 13:41:00,53.3,30.8,30.07,WSW,250,11.0,18.0,42,0.00,,---,0.00,VWS V14.01,2013-01-31 19:41:00,
2013-01-31 13:46:00,53.4,31.5,30.06,SW,220,7.0,18.0,43,0.00,,---,0.00,VWS V14.01,2013-01-31 19:46:00,
2013-01-31 13:51:00,53.6,31.7,30.06,SSW,207,8.0,18.0,43,0.00,,---,0.00,VWS V14.01,2013-01-31 19:51:00,
2013-01-31 13:56:00,53.5,30.4,30.06,SW,219,12.0,18.0,41,0.00,,---,0.00,VWS V14.01,2013-01-31 19:56:00,
2013-01-31 14:01:00,53.5,31.0,30.06,WSW,249,9.0,18.0,42,0.00,,---,0.00,VWS V14.01,2013-01-31 20:01:00,
2013-01-31 14:06:00,53.8,31.3,30.06,SW,231,10.0,14.0,42,0.00,,---,0.00,VWS V14.01,2013-01-31 20:06:00,
2013-01-31 14:11:00,54.2,32.2,30.06,WSW,239,12.0,16.0,43,0.00,,---,0.00,VWS V14.01,2013-01-31 20:11:00,
2013-01-31 14:16:00,54.4,31.8,30.06,South,184,5.0,16.0,42,0.00,,---,0.00,VWS V14.01,2013-01-31 20:16:00,
2013-01-31 14:21:00,54.5,32.5,30.05,South,188,8.0,16.0,43,0.00,,---,0.00,VWS V14.01,2013-01-31 20:21:00,
2013-01-31 14:26:00,54.5,32.5,30.05,WSW,250,8.0,16.0,43,0.00,,---,0.00,VWS V14.01,2013-01-31 20:26:00,
2013-01-31 14:31:00,54.5,32.5,30.05,SW,220,8.0,16.0,43,0.00,,---,0.00,VWS V14.01,2013-01-31 20:31:00,
2013-01-31 14:36:00,54.4,33.0,30.04,WSW,247,9.0,14.0,44,0.00,,---,0.00,VWS V14.01,2013-01-31 20:36:00,
2013-01-31 14:41:00,54.4,33.5,30.04,South,182,6.0,14.0,45,0.00,,---,0.00,VWS V14.01,2013-01-31 20:41:00,
2013-01-31 14:46:00,54.7,33.2,30.04,SW,225,8.0,17.0,44,0.00,,---,0.00,VWS V14.01,2013-01-31 20:46:00,
2013-01-31 14:51:00,55.0,34.1,30.04,SW,217,3.0,17.0,45,0.00,,---,0.00,VWS V14.01,2013-01-31 20:51:00,
2013-01-31 14:56:00,55.0,34.1,30.04,SW,215,17.0,17.0,45,0.00,,---,0.00,VWS V14.01,2013-01-31 20:56:00,
2013-01-31 15:01:00,54.8,33.9,30.04,WSW,238,10.0,17.0,45,0.00,,---,0.00,VWS V14.01,2013-01-31 21:01:00,
2013-01-31 15:06:00,55.0,34.1,30.05,SW,219,11.0,15.0,45,0.00,,---,0.00,VWS V14.01,2013-01-31 21:06:00,
2013-01-31 15:11:00,54.9,34.0,30.04,SSW,199,13.0,17.0,45,0.00,,---,0.00,VWS V14.01,2013-01-31 21:11:00,
2013-01-31 15:16:00,55.0,34.1,30.04,SW,217,10.0,17.0,45,0.00,,---,0.00,VWS V14.01,2013-01-31 21:16:00,
2013-01-31 15:21:00,55.3,34.3,30.05,WSW,249,6.0,17.0,45,0.00,,---,0.00,VWS V14.01,2013-01-31 21:21:00,
2013-01-31 15:26:00,55.6,34.6,30.05,WSW,239,8.0,17.0,45,0.00,,---,0.00,VWS V14.01,2013-01-31 21:26:00,
2013-01-31 15:31:00,55.7,34.1,30.05,SW,229,9.0,17.0,44,0.00,,---,0.00,VWS V14.01,2013-01-31 21:31:00,
2013-01-31 15:36:00,55.7,34.1,30.05,West,263,6.0,11.0,44,0.00,,---,0.00,VWS V14.01,2013-01-31 21:36:00,
2013-01-31 15:41:00,55.8,34.2,30.05,SSW,206,10.0,17.0,44,0.00,,---,0.00,VWS V14.01,2013-01-31 21:41:00,
2013-01-31 15:46:00,55.7,33.6,30.06,WSW,248,8.0,17.0,43,0.00,,---,0.00,VWS V14.01,2013-01-31 21:46:00,
2013-01-31 15:51:00,55.6,34.0,30.05,SW,236,7.0,17.0,44,0.00,,---,0.00,VWS V14.01,2013-01-31 21:51:00,
2013-01-31 15:56:00,55.8,34.2,30.06,SW,232,10.0,17.0,44,0.00,,---,0.00,VWS V14.01,2013-01-31 21:56:00,
2013-01-31 16:01:00,55.4,33.9,30.05,WSW,252,6.0,17.0,44,0.00,,---,0.00,VWS V14.01,2013-01-31 22:01:00,
2013-01-31 16:06:00,55.3,33.8,30.05,West,273,9.0,13.0,44,0.00,,---,0.00,VWS V14.01,2013-01-31 22:06:00,
2013-01-31 16:11:00,55.0,34.1,30.06,SW,223,4.0,15.0,45,0.00,,---,0.00,VWS V14.01,2013-01-31 22:11:00,
2013-01-31 16:16:00,55.0,34.1,30.06,SW,218,7.0,16.0,45,0.00,,---,0.00,VWS V14.01,2013-01-31 22:16:00,
2013-01-31 16:21:00,55.0,34.1,30.06,SW,225,13.0,16.0,45,0.00,,---,0.00,VWS V14.01,2013-01-31 22:21:00,
2013-01-31 16:26:00,54.9,34.5,30.06,WSW,240,9.0,16.0,46,0.00,,---,0.00,VWS V14.01,2013-01-31 22:26:00,
2013-01-31 16:31:00,54.8,33.9,30.06,SW,225,6.0,16.0,45,0.00,,---,0.00,VWS V14.01,2013-01-31 22:31:00,
2013-01-31 16:36:00,54.6,33.1,30.06,WSW,238,12.0,14.0,44,0.00,,---,0.00,VWS V14.01,2013-01-31 22:36:00,
2013-01-31 16:41:00,54.4,33.5,30.06,SW,221,12.0,17.0,45,0.00,,---,0.00,VWS V14.01,2013-01-31 22:41:00,
2013-01-31 16:46:00,54.2,33.9,30.06,WSW,242,8.0,17.0,46,0.00,,---,0.00,VWS V14.01,2013-01-31 22:46:00,
2013-01-31 16:51:00,54.1,33.8,30.06,SW,216,4.0,17.0,46,0.00,,---,0.00,VWS V14.01,2013-01-31 22:51:00,
2013-01-31 16:56:00,53.6,33.9,30.07,WSW,240,6.0,17.0,47,0.00,,---,0.00,VWS V14.01,2013-01-31 22:56:00,
2013-01-31 17:01:00,53.2,34.0,30.06,SSW,209,8.0,17.0,48,0.00,,---,0.00,VWS V14.01,2013-01-31 23:01:00,
2013-01-31 17:06:00,52.9,33.8,30.06,WSW,250,6.0,7.0,48,0.00,,---,0.00,VWS V14.01,2013-01-31 23:06:00,
2013-01-31 17:11:00,52.6,34.0,30.06,SSW,202,9.0,9.0,49,0.00,,---,0.00,VWS V14.01,2013-01-31 23:11:00,
2013-01-31 17:16:00,52.4,33.8,30.06,WSW,238,6.0,11.0,49,0.00,,---,0.00,VWS V14.01,2013-01-31 23:16:00,
2013-01-31 17:21:00,52.2,34.1,30.06,WSW,241,6.0,12.0,50,0.00,,---,0.00,VWS V14.01,2013-01-31 23:21:00,
2013-01-31 17:26:00,52.1,34.0,30.06,SSW,209,4.0,12.0,50,0.00,,---,0.00,VWS V14.01,2013-01-31 23:26:00,
2013-01-31 17:31:00,51.9,33.9,30.06,SSW,211,6.0,12.0,50,0.00,,---,0.00,VWS V14.01,2013-01-31 23:31:00,
2013-01-31 17:36:00,51.6,34.1,30.06,SSW,198,4.0,8.0,51,0.00,,---,0.00,VWS V14.01,2013-01-31 23:36:00,
2013-01-31 17:41:00,51.4,33.9,30.06,SW,232,3.0,8.0,51,0.00,,---,0.00,VWS V14.01,2013-01-31 23:41:00,
2013-01-31 17:46:00,51.3,33.8,30.06,SW,226,3.0,8.0,51,0.00,,---,0.00,VWS V14.01,2013-01-31 23:46:00,
2013-01-31 17:51:00,51.2,34.2,30.06,SSW,213,1.0,8.0,52,0.00,,---,0.00,VWS V14.01,2013-01-31 23:51:00,
2013-01-31 17:56:00,50.9,33.9,30.07,SSW,207,1.0,8.0,52,0.00,,---,0.00,VWS V14.01,2013-01-31 23:56:00,
2013-01-31 18:01:00,50.7,33.7,30.07,WSW,246,1.0,8.0,52,0.00,,---,0.00,VWS V14.01,2013-02-01 00:01:00,
2013-01-31 18:06:00,50.6,34.1,30.07,SW,229,3.0,4.0,53,0.00,,---,0.00,VWS V14.01,2013-02-01 00:06:00,
2013-01-31 18:11:00,50.5,34.0,30.07,SSW,206,1.0,4.0,53,0.00,,---,0.00,VWS V14.01,2013-02-01 00:11:00,
2013-01-31 18:16:00,50.3,33.8,30.07,SSW,213,3.0,4.0,53,0.00,,---,0.00,VWS V14.01,2013-02-01 00:16:00,
2013-01-31 18:21:00,50.2,33.7,30.08,SW,233,1.0,5.0,53,0.00,,---,0.00,VWS V14.01,2013-02-01 00:21:00,
2013-01-31 18:26:00,49.9,33.9,30.08,SW,233,2.0,5.0,54,0.00,,---,0.00,VWS V14.01,2013-02-01 00:26:00,
2013-01-31 18:31:00,49.7,33.8,30.08,WSW,244,1.0,5.0,54,0.00,,---,0.00,VWS V14.01,2013-02-01 00:31:00,
2013-01-31 18:36:00,49.5,33.6,30.08,WSW,250,3.0,4.0,54,0.00,,---,0.00,VWS V14.01,2013-02-01 00:36:00,
2013-01-31 18:41:00,49.4,33.5,30.08,SW,221,2.0,5.0,54,0.00,,---,0.00,VWS V14.01,2013-02-01 00:41:00,
2013-01-31 18:46:00,49.2,33.7,30.08,SSW,207,2.0,5.0,55,0.00,,---,0.00,VWS V14.01,2013-02-01 00:46:00,
2013-01-31 18:51:00,49.0,33.5,30.09,SW,219,3.0,5.0,55,0.00,,---,0.00,VWS V14.01,2013-02-01 00:51:00,
2013-01-31 18:56:00,48.7,33.7,30.09,SW,226,0.0,5.0,56,0.00,,---,0.00,VWS V14.01,2013-02-01 00:56:00,
2013-01-31 19:01:00,48.6,33.6,30.09,SW,223,2.0,5.0,56,0.00,,---,0.00,VWS V14.01,2013-02-01 01:01:00,
2013-01-31 19:06:00,48.6,34.1,30.09,SW,215,0.0,1.0,57,0.00,,---,0.00,VWS V14.01,2013-02-01 01:06:00,
2013-01-31 19:11:00,48.5,34.0,30.09,WSW,244,3.0,3.0,57,0.00,,---,0.00,VWS V14.01,2013-02-01 01:11:00,
2013-01-31 19:15:00,48.5,34.0,30.09,WSW,238,2.0,4.0,57,0.00,,---,0.00,VWS V14.01,2013-02-01 01:15:00,
2013-01-31 19:20:00,48.7,34.2,30.10,SW,231,1.0,4.0,57,0.00,,---,0.00,VWS V14.01,2013-02-01 01:20:00,
2013-01-31 19:25:00,49.0,34.9,30.12,WNW,296,6.0,10.0,58,0.00,,---,0.00,VWS V14.01,2013-02-01 01:25:00,
2013-01-31 19:30:00,49.4,35.3,30.13,NW,318,5.0,16.0,58,0.00,,---,0.00,VWS V14.01,2013-02-01 01:30:00,
2013-01-31 19:35:00,49.7,35.1,30.13,NW,311,1.0,13.0,57,0.00,,---,0.00,VWS V14.01,2013-02-01 01:35:00,
2013-01-31 19:40:00,49.7,35.1,30.13,NNW,331,6.0,13.0,57,0.00,,---,0.00,VWS V14.01,2013-02-01 01:40:00,
2013-01-31 19:45:00,49.6,34.6,30.13,WNW,283,6.0,14.0,56,0.00,,---,0.00,VWS V14.01,2013-02-01 01:45:00,
2013-01-31 19:50:00,49.5,34.5,30.14,NW,319,5.0,17.0,56,0.00,,---,0.00,VWS V14.01,2013-02-01 01:50:00,
2013-01-31 19:55:00,49.3,34.3,30.14,NNW,341,4.0,17.0,56,0.00,,---,0.00,VWS V14.01,2013-02-01 01:55:00,
2013-01-31 20:00:00,49.0,34.0,30.15,NNW,348,12.0,17.0,56,0.00,,---,0.00,VWS V14.01,2013-02-01 02:00:00,
2013-01-31 20:05:00,48.8,33.4,30.15,NNE,12,8.0,18.0,55,0.00,,---,0.00,VWS V14.01,2013-02-01 02:05:00,
2013-01-31 20:10:00,48.5,33.1,30.15,NW,304,9.0,18.0,55,0.00,,---,0.00,VWS V14.01,2013-02-01 02:10:00,
2013-01-31 20:15:00,48.3,32.9,30.16,NW,319,5.0,18.0,55,0.00,,---,0.00,VWS V14.01,2013-02-01 02:15:00,
2013-01-31 20:20:00,48.2,33.3,30.16,NW,325,6.0,18.0,56,0.00,,---,0.00,VWS V14.01,2013-02-01 02:20:00,
2013-01-31 20:25:00,48.0,33.5,30.17,NNW,334,6.0,18.0,57,0.00,,---,0.00,VWS V14.01,2013-02-01 02:25:00,
2013-01-31 20:30:00,47.6,33.6,30.17,NNW,348,10.0,18.0,58,0.00,,---,0.00,VWS V14.01,2013-02-01 02:30:00,
2013-01-31 20:35:00,46.8,33.2,30.18,NW,304,16.0,21.0,59,0.00,,---,0.00,VWS V14.01,2013-02-01 02:35:00,
2013-01-31 20:40:00,45.8,33.5,30.19,NW,313,9.0,21.0,62,0.00,,---,0.00,VWS V14.01,2013-02-01 02:40:00,
2013-01-31 20:45:00,45.0,33.6,30.19,NNW,337,8.0,21.0,64,0.00,,---,0.00,VWS V14.01,2013-02-01 02:45:00,
2013-01-31 20:50:00,44.3,34.0,30.19,NNW,327,10.0,21.0,67,0.00,,---,0.00,VWS V14.01,2013-02-01 02:50:00,
2013-01-31 20:55:00,43.7,33.8,30.20,NW,313,10.0,21.0,68,0.00,,---,0.00,VWS V14.01,2013-02-01 02:55:00,
2013-01-31 21:00:00,43.1,34.0,30.20,NNW,334,7.0,21.0,70,0.00,,---,0.00,VWS V14.01,2013-02-01 03:00:00,
2013-01-31 21:05:00,42.3,33.2,30.21,NW,318,7.0,12.0,70,0.00,,---,0.00,VWS V14.01,2013-02-01 03:05:00,
2013-01-31 21:10:00,41.6,33.3,30.22,WNW,297,5.0,14.0,72,0.00,,---,0.00,VWS V14.01,2013-02-01 03:10:00,
2013-01-31 21:15:00,40.9,32.9,30.22,North,351,12.0,14.0,73,0.00,,---,0.00,VWS V14.01,2013-02-01 03:15:00,
2013-01-31 21:20:00,40.4,32.8,30.23,North,350,4.0,17.0,74,0.00,,---,0.00,VWS V14.01,2013-02-01 03:20:00,
2013-01-31 21:25:00,40.0,32.7,30.23,NW,319,11.0,17.0,75,0.00,,---,0.00,VWS V14.01,2013-02-01 03:25:00,
2013-01-31 21:30:00,39.6,32.0,30.23,NNE,15,9.0,18.0,74,0.00,,---,0.00,VWS V14.01,2013-02-01 03:30:00,
2013-01-31 21:35:00,39.5,31.9,30.23,NW,305,12.0,15.0,74,0.00,,---,0.00,VWS V14.01,2013-02-01 03:35:00,
2013-01-31 21:40:00,39.3,31.7,30.25,NNW,327,6.0,15.0,74,0.00,,---,0.00,VWS V14.01,2013-02-01 03:40:00,
2013-01-31 21:45:00,39.2,31.0,30.25,NW,316,15.0,19.0,72,0.00,,---,0.00,VWS V14.01,2013-02-01 03:45:00,
2013-01-31 21:50:00,39.1,30.5,30.25,NW,308,14.0,19.0,71,0.00,,---,0.00,VWS V14.01,2013-02-01 03:50:00,
2013-01-31 21:55:00,38.8,30.6,30.25,NW,312,14.0,21.0,72,0.00,,---,0.00,VWS V14.01,2013-02-01 03:55:00,
2013-01-31 22:00:00,38.6,30.7,30.26,NW,313,10.0,21.0,73,0.00,,---,0.00,VWS V14.01,2013-02-01 04:00:00,
2013-01-31 22:05:00,38.3,31.1,30.27,NW,317,8.0,10.0,75,0.00,,---,0.00,VWS V14.01,2013-02-01 04:05:00,
2013-01-31 22:10:00,37.9,31.4,30.27,North,355,7.0,16.0,77,0.00,,---,0.00,VWS V14.01,2013-02-01 04:10:00,
2013-01-31 22:15:00,37.5,31.3,30.27,NW,325,6.0,20.0,78,0.00,,---,0.00,VWS V14.01,2013-02-01 04:15:00,
2013-01-31 22:20:00,37.1,31.5,30.28,North,349,14.0,20.0,80,0.00,,---,0.00,VWS V14.01,2013-02-01 04:20:00,
2013-01-31 22:25:00,36.2,31.2,30.28,North,350,11.0,20.0,82,0.00,,---,0.00,VWS V14.01,2013-02-01 04:25:00,
2013-01-31 22:30:00,35.6,31.0,30.28,NW,317,14.0,20.0,83,0.00,,---,0.00,VWS V14.01,2013-02-01 04:30:00,
2013-01-31 22:35:00,35.0,30.7,30.29,North,355,12.0,14.0,84,0.00,,---,0.00,VWS V14.01,2013-02-01 04:35:00,
2013-01-31 22:40:00,34.6,30.3,30.30,NW,312,8.0,16.0,84,0.00,,---,0.00,VWS V14.01,2013-02-01 04:40:00,
2013-01-31 22:45:00,34.2,29.9,30.31,NNW,342,7.0,16.0,84,0.00,,---,0.00,VWS V14.01,2013-02-01 04:45:00,
2013-01-31 22:50:00,33.7,29.4,30.31,North,355,5.0,17.0,84,0.00,,---,0.00,VWS V14.01,2013-02-01 04:50:00,
2013-01-31 22:55:00,33.2,29.5,30.31,NNW,329,8.0,17.0,86,0.00,,---,0.00,VWS V14.01,2013-02-01 04:55:00,
2013-01-31 23:00:00,32.5,28.2,30.31,NW,319,8.0,17.0,84,0.00,,---,0.00,VWS V14.01,2013-02-01 05:00:00,
2013-01-31 23:01:00,32.4,27.5,30.31,NNW,331,9.0,17.0,82,0.00,,---,0.00,VWS V14.01,2013-02-01 05:01:00,
2013-01-31 23:03:00,32.2,27.0,30.31,WNW,297,13.0,17.0,81,0.00,,---,0.00,VWS V14.01,2013-02-01 05:03:00,
2013-01-31 23:08:00,31.9,26.1,30.31,North,360,10.0,13.0,79,0.00,,---,0.00,VWS V14.01,2013-02-01 05:08:00,
2013-01-31 23:13:00,31.7,25.6,30.31,NNW,331,6.0,15.0,78,0.00,,---,0.00,VWS V14.01,2013-02-01 05:13:00,
2013-01-31 23:18:00,31.6,25.5,30.31,NW,317,8.0,15.0,78,0.00,,---,0.00,VWS V14.01,2013-02-01 05:18:00,
2013-01-31 23:23:00,31.6,24.9,30.31,NNW,327,8.0,15.0,76,0.00,,---,0.00,VWS V14.01,2013-02-01 05:23:00,
2013-01-31 23:28:00,31.7,24.0,30.31,NNW,338,6.0,15.0,73,0.00,,---,0.00,VWS V14.01,2013-02-01 05:28:00,
2013-01-31 23:33:00,31.7,23.7,30.31,NW,311,7.0,15.0,72,0.00,,---,0.00,VWS V14.01,2013-02-01 05:33:00,
2013-01-31 23:38:00,31.8,23.1,30.31,NE,36,8.0,12.0,70,0.00,,---,0.00,VWS V14.01,2013-02-01 05:38:00,
2013-01-31 23:43:00,31.8,22.8,30.32,NW,309,11.0,13.0,69,0.00,,---,0.00,VWS V14.01,2013-02-01 05:43:00,
2013-01-31 23:48:00,31.9,22.5,30.32,NW,323,5.0,13.0,68,0.00,,---,0.00,VWS V14.01,2013-02-01 05:48:00,
2013-01-31 23:53:00,31.8,22.1,30.32,NNW,333,4.0,13.0,67,0.00,,---,0.00,VWS V14.01,2013-02-01 05:53:00,
2013-01-31 23:58:00,31.8,22.1,30.32,NW,316,2.0,13.0,67,0.00,,---,0.00,VWS V14.01,2013-02-01 05:58:00,